TimeCDT,TemperatureF,Dew PointF,Humidity,Sea Level PressureIn,VisibilityMPH,Wind Direction,Wind SpeedMPH,Gust SpeedMPH,PrecipitationIn,Events,Conditions,WindDirDegrees,DateUTC
12:56 AM,55.9,54.0,93,29.65,10.0,North,5.8,-,N/A,,Overcast,360,2012-10-25 05:56:00
1:17 AM,55.4,53.6,94,29.68,10.0,NW,12.7,20.7,N/A,Thunderstorm,Thunderstorm,310,2012-10-25 06:17:00
1:46 AM,53.6,51.8,94,29.68,10.0,NNE,3.5,19.6,0.02,Thunderstorm,Overcast,20,2012-10-25 06:46:00
1:52 AM,53.6,51.8,94,29.65,10.0,NE,9.2,-,0.03,Rain,Light Rain,50,2012-10-25 06:52:00
1:56 AM,54.0,52.0,93,29.66,10.0,NE,5.8,-,0.03,Rain,Light Rain,40,2012-10-25 06:56:00
2:07 AM,53.6,51.8,94,29.65,10.0,North,5.8,-,0.00,Rain,Light Rain,10,2012-10-25 07:07:00
2:56 AM,53.1,52.0,96,29.63,10.0,Variable,4.6,-,0.01,Rain,Light Rain,0,2012-10-25 07:56:00
3:15 AM,53.6,51.8,94,29.60,10.0,NE,10.4,-,0.00,Rain,Light Rain,50,2012-10-25 08:15:00
3:56 AM,53.1,51.1,93,29.62,8.0,North,8.1,-,0.03,Rain,Rain,360,2012-10-25 08:56:00
4:36 AM,53.6,51.8,94,29.61,10.0,North,6.9,-,0.05,Thunderstorm,Thunderstorm,360,2012-10-25 09:36:00
4:51 AM,53.6,51.8,94,29.57,10.0,NNE,10.4,-,0.05,Rain,Light Rain,30,2012-10-25 09:51:00
4:56 AM,53.1,51.1,93,29.59,10.0,North,5.8,-,0.05,Rain-Thunderstorm,Light Rain,360,2012-10-25 09:56:00
5:35 AM,51.8,51.8,100,29.57,1.8,North,6.9,-,0.19,Rain-Thunderstorm,Heavy Thunderstorms and Rain,360,2012-10-25 10:35:00
5:43 AM,51.8,51.8,100,29.59,3.0,Calm,Calm,-,0.20,Rain-Thunderstorm,Thunderstorms and Rain,0,2012-10-25 10:43:00
5:56 AM,52.0,51.1,97,29.59,10.0,NNW,5.8,-,0.21,Rain,Light Rain,330,2012-10-25 10:56:00
6:31 AM,51.8,50.0,94,29.60,8.0,WNW,15.0,19.6,0.02,Rain-Thunderstorm,Thunderstorms and Rain,300,2012-10-25 11:31:00
6:54 AM,48.2,46.4,93,29.64,2.5,NW,6.9,31.1,0.20,Rain-Thunderstorm,Heavy Thunderstorms and Rain,320,2012-10-25 11:54:00
6:56 AM,48.9,46.9,93,29.63,1.8,Variable,6.9,31.1,0.27,Rain-Thunderstorm,Heavy Thunderstorms and Rain,0,2012-10-25 11:56:00
7:04 AM,48.2,46.4,93,29.65,2.0,WNW,8.1,-,0.04,Rain-Thunderstorm,Heavy Thunderstorms and Rain,300,2012-10-25 12:04:00
7:38 AM,48.2,46.4,93,29.51,10.0,NE,10.4,23.0,0.12,Rain,Light Rain,40,2012-10-25 12:38:00
7:56 AM,48.0,46.0,93,29.54,10.0,NE,10.4,-,0.12,,Overcast,40,2012-10-25 12:56:00
8:56 AM,46.9,45.0,93,29.62,4.0,West,6.9,-,0.05,Rain,Light Rain,280,2012-10-25 13:56:00
9:56 AM,46.0,43.0,89,29.62,10.0,NNW,9.2,-,0.00,,Overcast,330,2012-10-25 14:56:00
10:56 AM,45.0,42.1,90,29.64,4.0,NW,13.8,21.9,0.02,Rain,Light Rain,310,2012-10-25 15:56:00
11:04 AM,44.6,42.8,93,29.63,3.0,NW,11.5,21.9,0.00,Rain,Light Rain,320,2012-10-25 16:04:00
11:47 AM,42.8,39.2,87,29.67,4.0,NW,12.7,23.0,0.02,Rain,Light Rain,320,2012-10-25 16:47:00
11:56 AM,42.1,39.0,89,29.68,4.0,NW,11.5,23.0,0.02,Rain,Light Rain,310,2012-10-25 16:56:00
12:56 PM,41.0,37.9,89,29.72,4.0,NW,15.0,21.9,0.01,Rain,Light Rain,320,2012-10-25 17:56:00
1:24 PM,39.2,37.4,93,29.69,6.0,NNW,18.4,29.9,0.00,Rain,Light Rain,330,2012-10-25 18:24:00
1:56 PM,39.0,35.1,86,29.74,10.0,NW,13.8,34.5,0.01,Rain,Light Rain,320,2012-10-25 18:56:00
3:10 PM,39.2,35.6,87,29.77,10.0,NW,11.5,24.2,N/A,,Overcast,310,2012-10-25 20:10:00
3:44 PM,39.2,35.6,87,29.79,10.0,WNW,16.1,25.3,N/A,,Overcast,300,2012-10-25 20:44:00
3:56 PM,39.0,35.1,86,29.81,10.0,WNW,12.7,21.9,N/A,,Overcast,300,2012-10-25 20:56:00
4:10 PM,39.2,35.6,87,29.81,10.0,NW,12.7,25.3,N/A,,Overcast,310,2012-10-25 21:10:00
4:22 PM,39.2,33.8,81,29.82,10.0,WNW,17.3,24.2,N/A,,Overcast,300,2012-10-25 21:22:00
4:36 PM,39.2,33.8,81,29.82,10.0,NW,12.7,24.2,N/A,,Overcast,310,2012-10-25 21:36:00
4:56 PM,39.0,32.0,76,29.85,10.0,NW,13.8,28.8,N/A,,Overcast,320,2012-10-25 21:56:00
5:56 PM,37.9,30.0,73,29.91,10.0,NW,13.8,-,N/A,,Overcast,310,2012-10-25 22:56:00
6:14 PM,37.4,30.2,75,29.90,10.0,WNW,16.1,25.3,N/A,,Overcast,300,2012-10-25 23:14:00
6:56 PM,37.9,30.0,73,29.97,10.0,WNW,17.3,23.0,N/A,,Overcast,290,2012-10-25 23:56:00
7:56 PM,37.9,30.9,76,30.02,10.0,West,12.7,21.9,N/A,,Mostly Cloudy,280,2012-10-26 00:56:00
8:56 PM,37.9,30.0,73,30.04,10.0,WNW,10.4,19.6,N/A,,Overcast,290,2012-10-26 01:56:00
9:56 PM,37.9,27.0,65,30.06,10.0,WNW,13.8,25.3,N/A,,Overcast,290,2012-10-26 02:56:00
10:56 PM,37.0,27.0,67,30.09,10.0,West,10.4,-,N/A,,Overcast,270,2012-10-26 03:56:00
11:56 PM,37.0,27.0,67,30.12,10.0,West,11.5,-,N/A,,Overcast,280,2012-10-26 04:56:00